Montrose, CO

1:35 AM MDT on March 29, 2017 (GMT -0600)
Montrose Regional

Weather History for KMTJ - May, 2015

Change the Weather History Date:

Tuesday, May 12, 2015

  Actual Average Record
Temperature  
Mean Temperature 58 °F 57 °F  
Max Temperature 76 °F 72 °F 82 °F (2001)
Min Temperature 39 °F 42 °F 30 °F (1999)
Degree Days  
Heating Degree Days 7 8  
Month to date heating degree days 119 120  
Since 1 July heating degree days 5221 6058  
Cooling Degree Days 0 0  
Month to date cooling degree days 0 0  
Year to date cooling degree days 0 0  
Growing Degree Days 6 (Base 50)    
Moisture  
Dew Point 30 °F    
Average Humidity 45    
Maximum Humidity 76    
Minimum Humidity 14    
Precipitation  
Precipitation 0.00 in 0.05 in 0.22 in (2008)
Month to date precipitation 0.72 0.55  
Year to date precipitation 3.31 3.77  
Sea Level Pressure  
Sea Level Pressure 29.89 in    
Wind  
Wind Speed 10 mph (South)    
Max Wind Speed 30 mph    
Max Gust Speed 40 mph    
Visibility 10 miles    
Events Thunderstorm    
T = Trace of Precipitation, MM = Missing Value Source: NWS Daily Summary

Daily Weather History Graph

Daily Weather History Graph

Search for Another Location

Airport or City:

Trip Planner

Search our weather history database for the weather conditions in past years. The results will help you decide how hot, cold, wet, or windy it might be!

Date:

Astronomy

May. 12, 2015 Rise Set
Actual Time 6:02 AM MDT 8:13 PM MDT
Civil Twilight 5:33 AM MDT 8:43 PM MDT
Nautical Twilight 4:57 AM MDT 9:19 PM MDT
Astronomical Twilight 4:17 AM MDT 9:58 PM MDT
Moon 2:33 AM MDT (5/12) 2:16 PM MDT (5/12)
Length of Visible Light 15h 09m
Length of Day
14h 10m
Waning Crescent, 35% of the Moon is Illuminated
May 12
Waning Crescent
May 17
New
May 25
First Quarter
Jun 2
Full
Jun 9
Last Quarter

Hourly Weather History & Observations

Time (MDT) Temp. Windchill Dew Point Humidity Pressure Visibility Wind Dir Wind Speed Gust Speed Precip Events Conditions
12:53 AM 48.0 °F - 32.0 °F 54% 29.96 in 10.0 mi SE 8.1 mph - N/A   Clear
1:53 AM 48.0 °F - 30.9 °F 52% 29.94 in 10.0 mi SE 9.2 mph - N/A   Clear
2:53 AM 44.1 °F 42.5 °F 32.0 °F 63% 29.94 in 10.0 mi Variable 3.5 mph - N/A   Clear
3:53 AM 42.1 °F 39.2 °F 32.0 °F 67% 29.93 in 10.0 mi SSE 4.6 mph - N/A   Clear
4:53 AM 39.9 °F 34.5 °F 32.0 °F 73% 29.93 in 10.0 mi SSE 8.1 mph - N/A   Clear
5:53 AM 39.9 °F 35.1 °F 32.0 °F 73% 29.95 in 10.0 mi SE 6.9 mph - N/A   Clear
6:53 AM 42.1 °F 37.1 °F 30.0 °F 62% 29.95 in 10.0 mi South 8.1 mph - N/A   Clear
7:53 AM 53.1 °F - 32.0 °F 45% 29.94 in 10.0 mi Calm Calm - N/A   Clear
8:53 AM 57.0 °F - 36.0 °F 45% 29.92 in 10.0 mi Variable 4.6 mph - N/A   Clear
9:53 AM 62.1 °F - 37.0 °F 39% 29.91 in 10.0 mi WNW 8.1 mph - N/A   Clear
10:53 AM 66.9 °F - 35.1 °F 31% 29.88 in 10.0 mi West 4.6 mph - N/A   Partly Cloudy
11:37 AM 72.0 °F - 19.9 °F 14% 30.04 in 10.0 mi South 10.4 mph 21.9 mph N/A   Partly Cloudy
11:53 AM 73.0 °F - 21.9 °F 15% 29.85 in 10.0 mi SW 15.0 mph 20.7 mph N/A   Partly Cloudy
12:53 PM 71.1 °F - 23.0 °F 16% 29.84 in 10.0 mi South 5.8 mph - N/A   Scattered Clouds
1:53 PM 71.1 °F - 21.9 °F 16% 29.81 in 10.0 mi South 8.1 mph - N/A   Mostly Cloudy
2:53 PM 73.0 °F - 21.9 °F 15% 29.79 in 10.0 mi SSE 16.1 mph 28.8 mph N/A   Scattered Clouds
3:53 PM 73.9 °F - 24.1 °F 16% 29.76 in 10.0 mi SSE 18.4 mph - N/A   Scattered Clouds
4:53 PM 71.1 °F - 26.1 °F 19% 29.76 in 10.0 mi WSW 11.5 mph - N/A   Mostly Cloudy
5:48 PM 68.0 °F - 28.4 °F 23% 29.95 in 9.0 mi South 28.8 mph 39.1 mph N/A   Overcast
5:53 PM 68.0 °F - 28.0 °F 22% 29.82 in 8.0 mi SW 15.0 mph 39.1 mph N/A Thunderstorm Thunderstorm
6:02 PM 64.0 °F - 34.0 °F 33% 29.97 in 8.0 mi WSW 23.0 mph 39.1 mph N/A Thunderstorm Thunderstorm
6:20 PM 63.0 °F - 35.1 °F 35% 29.98 in 10.0 mi WSW 25.3 mph 32.2 mph N/A   Overcast
6:53 PM 61.0 °F - 34.0 °F 36% 29.88 in 10.0 mi SSE 11.5 mph 21.9 mph N/A   Overcast
7:53 PM 61.0 °F - 34.0 °F 36% 29.81 in 10.0 mi SSE 15.0 mph - N/A   Mostly Cloudy
8:53 PM 61.0 °F - 33.1 °F 35% 29.82 in 10.0 mi SSE 13.8 mph - N/A   Partly Cloudy
9:53 PM 59.0 °F - 35.1 °F 41% 29.83 in 10.0 mi SSE 13.8 mph 20.7 mph N/A   Overcast
10:53 PM 59.0 °F - 36.0 °F 42% 29.81 in 10.0 mi South 13.8 mph - N/A   Overcast
11:53 PM 57.9 °F - 35.1 °F 42% 29.81 in 10.0 mi SSE 4.6 mph - N/A   Overcast